Palapa C1

operational
NORAD ID: 23779 Int'l Des: 1996-006 Owner: SINDO/PSN Country: ID
HEOCIRCULAR

Palapa C1について

説明を読み込み中...

リアルタイム位置

3D地球を読み込み中...

次回通過

高度履歴

Altitude vs Time

uPlot chart will show altitude changes over time

軌道要素

1 23779U 96006A 25278.07095806 .00000006 00000-0 00000+0 0 9993
2 23779 10.3297 48.1080 0009693 167.9818 201.8659 0.99595313108318
Epoch: Oct 5, 2025 • Age: 29 hours

現在のステータス

高度 35972.9 km
速度 3.07 km/s
衛星直下点 10.22°N, 15.21°E
打ち上げ日 Feb 1, 1996
運用期間 29.6 years
タイプ other

技術仕様

分類 Payload
質量 2989.00 kg
乾燥質量 1600.00 kg
総質量 2989.00 kg
長さ 4.50 m
直径 2.80 m
スパン 20.00 m
形状 Box + 2 Pan
製造者 HSES
バスタイプ HS-601
フェーズステータス Unknown Active Status
所有者/国 SINDO/PSN/ID

大規模コンステレーション

Loading constellations...